Nassau, Bahamas

3:50 PM EST on February 10, 2016 (GMT -0500)
Nassau International

Weather History for MYNN - November, 2011

Change the Weather History Date:

Monday, November 14, 2011

  Actual Average Record
Temperature  
Mean Temperature 80 °F -  
Max Temperature 84 °F 81 °F 87 °F (2008)
Min Temperature 77 °F 66 °F 60 °F (2000)
Cooling Degree Days 16    
Growing Degree Days 30 (Base 50)    
Moisture  
Dew Point 74 °F    
Average Humidity 82    
Maximum Humidity 95    
Minimum Humidity 69    
Precipitation  
Precipitation 0.01 in 0.07 in - ()
Sea Level Pressure  
Sea Level Pressure 30.07 in    
Wind  
Wind Speed 8 mph ()    
Max Wind Speed 12 mph    
Max Gust Speed -    
Visibility 6.9 miles    
Events      
Averages and records for this station are not official NWS values.
T = Trace of Precipitation, MM = Missing Value Source: Averaged Metar Reports

Daily Weather History Graph

Daily Weather History Graph

Search for Another Location

Airport or City:

Trip Planner

Search our weather history database for the weather conditions in past years. The results will help you decide how hot, cold, wet, or windy it might be!

Date:

Astronomy

Nov. 14, 2011 Rise Set
Actual Time 6:25 AM EST 5:22 PM EST
Civil Twilight 6:01 AM EST 5:46 PM EST
Nautical Twilight 5:34 AM EST 6:14 PM EST
Astronomical Twilight 5:06 AM EST 6:41 PM EST
Moon 8:34 PM EST (11/14) 9:34 AM EST (11/14)
Length of Visible Light 11h 45m
Length of Day
10h 56m
Waning Gibbous, 87% of the Moon is Illuminated
Nov 14
Waning Gibbous
Nov 18
Last Quarter
Nov 25
New
Dec 2
First Quarter
Dec 10
Full

Hourly Weather History & Observations

Time (EST) Temp. Heat Index Dew Point Humidity Pressure Visibility Wind Dir Wind Speed Gust Speed Precip Events Conditions
12:00 AM 80.6 °F 84.6 °F 71.6 °F 74% 30.09 in 6.2 mi ENE 8.1 mph - N/A   Scattered Clouds
1:00 AM 78 °F - 73 °F 80% 30.09 in 9 mi ENE 8.1 mph - -   Mostly Cloudy
1:00 AM 77.0 °F - 73.4 °F 89% 30.08 in 6.2 mi ENE 8.1 mph - N/A   Scattered Clouds
2:00 AM 78.8 °F - 68.0 °F 69% 30.08 in 6.2 mi NE 11.5 mph - N/A   Scattered Clouds
3:00 AM 78.8 °F - 68.0 °F 69% 30.06 in 6.2 mi ENE 11.5 mph - N/A   Scattered Clouds
4:00 AM 77 °F - 73 °F 83% 30.07 in 9 mi ENE 10.4 mph - -   Partly Cloudy
4:00 AM 77.0 °F - 73.4 °F 89% 30.06 in 6.2 mi ENE 10.4 mph - N/A   Scattered Clouds
5:00 AM 78.8 °F - 71.6 °F 78% 30.07 in 6.2 mi ENE 5.8 mph - N/A   Partly Cloudy
6:00 AM 80.6 °F 86.2 °F 75.2 °F 84% 30.08 in 6.2 mi ENE 6.9 mph - N/A   Partly Cloudy
7:00 AM 77.0 °F - 73.4 °F 89% 30.09 in 6.2 mi ENE 8.1 mph - N/A   Scattered Clouds
8:00 AM 80.6 °F 87.1 °F 77.0 °F 89% 30.09 in 6.2 mi ENE 9.2 mph - N/A   Partly Cloudy
9:00 AM 80.6 °F 87.1 °F 77.0 °F 89% 30.10 in 6.2 mi ENE 6.9 mph - N/A   Mostly Cloudy
10:00 AM 82 °F - 75 °F 75% 30.10 in 9 mi ENE 11.5 mph - -   Partly Cloudy
12:00 PM 84.2 °F 94.1 °F 77.0 °F 79% 30.08 in 6.2 mi ENE 9.2 mph - N/A   Mostly Cloudy
1:00 PM 82 °F - 75 °F 75% 30.05 in 9 mi ENE 11.5 mph - -   Partly Cloudy
1:00 PM 82.4 °F 89.5 °F 75.2 °F 79% 30.05 in 6.2 mi ENE 11.5 mph - N/A   Scattered Clouds
2:00 PM 84.2 °F 94.1 °F 77.0 °F 79% 30.02 in 6.2 mi East 8.1 mph - N/A   Scattered Clouds
3:00 PM 84.2 °F 90.9 °F 73.4 °F 70% 30.01 in 6.2 mi East 10.4 mph - N/A   Scattered Clouds
4:00 PM 80 °F - 76 °F 82% 30.03 in 9 mi East 8.1 mph - -   Partly Cloudy
4:00 PM 80.6 °F 86.2 °F 75.2 °F 84% 30.03 in 6.2 mi East 8.1 mph - N/A   Scattered Clouds
5:00 PM 82.4 °F 88.2 °F 73.4 °F 74% 30.03 in 6.2 mi East 10.4 mph - N/A   Mostly Cloudy
6:00 PM 80.6 °F 86.2 °F 75.2 °F 84% 30.04 in 6.2 mi East 9.2 mph - N/A   Scattered Clouds
7:00 PM - - - % 30.06 in 9 mi East 9.2 mph - -   Mostly Cloudy
7:00 PM 78.8 °F - 77.0 °F 94% 30.06 in 6.2 mi East 9.2 mph - N/A   Scattered Clouds
8:00 PM 80.6 °F 86.2 °F 75.2 °F 84% 30.07 in 6.2 mi East 6.9 mph - N/A   Scattered Clouds
9:00 PM 80.6 °F 86.2 °F 75.2 °F 84% 30.08 in 6.2 mi East 5.8 mph - N/A   Mostly Cloudy
10:00 PM 77 °F - 76 °F 95% 30.09 in 9 mi East 5.8 mph - -   Partly Cloudy
10:00 PM 77.0 °F - 75.2 °F 94% 30.08 in 6.2 mi East 5.8 mph - N/A   Scattered Clouds
11:00 PM 80.6 °F 87.1 °F 77.0 °F 89% 30.07 in 6.2 mi East 5.8 mph - N/A   Partly Cloudy